Ketchikan, AK

5:09 PM AKST on February 20, 2019 (GMT -0900)
Ketchikan International

Weather History for PAKT - January, 2019

Change the Weather History Date:

Monday, January 7, 2019

  Actual Average Record
Temperature  
Mean Temperature 24 °F -  
Max Temperature 30 °F 38 °F 62 °F (1958)
Min Temperature 17 °F 26 °F 4 °F (1991)
Degree Days  
Heating Degree Days 42    
Moisture  
Dew Point 20 °F    
Average Humidity 79    
Maximum Humidity 93    
Minimum Humidity 60    
Precipitation  
Precipitation 0.00 in - - ()
Sea Level Pressure  
Sea Level Pressure 30.03 in    
Wind  
Wind Speed 4 mph (South)    
Max Wind Speed 7 mph    
Max Gust Speed -    
Visibility 9 miles    
Events Snow    
Averages and records for this station are not official NWS values.
T = Trace of Precipitation, MM = Missing Value Source: NWS Daily Summary

Daily Weather History Graph

Daily Weather History Graph

Search for Another Location

Airport or City:

Astronomy

Jan. 07, 2019 Rise Set
Actual Time 8:11 AM AKST 3:35 PM AKST
Civil Twilight 7:26 AM AKST 4:20 PM AKST
Nautical Twilight 6:39 AM AKST 5:07 PM AKST
Astronomical Twilight 5:54 AM AKST 5:51 PM AKST
Moon 9:17 AM AKST (1/7) 5:26 PM AKST (1/7)
Length of Visible Light 8h 53m
Length of Day
7h 24m
Waxing Crescent, 3% of the Moon is Illuminated
Jan 7
Waxing Crescent
Jan 13
First Quarter
Jan 20
Full
Jan 27
Last Quarter
Feb 4
New

Hourly Weather History & Observations

Time (AKST) Temp. Windchill Dew Point Humidity Pressure Visibility Wind Dir Wind Speed Gust Speed Precip Events Conditions
12:53 AM 24.1 °F 19.7 °F 12.0 °F 60% 29.75 in 10.0 mi WNW 3.5 mph - N/A   Partly Cloudy
1:53 AM 24.1 °F 19.7 °F 12.0 °F 60% 29.78 in 10.0 mi NW 3.5 mph - N/A   Mostly Cloudy
2:53 AM 21.0 °F 14.6 °F 12.9 °F 71% 29.82 in 10.0 mi WSW 4.6 mph - N/A   Clear
3:53 AM 17.1 °F - 10.9 °F 77% 29.85 in 10.0 mi Calm Calm - N/A   Clear
4:53 AM 19.0 °F - 12.9 °F 77% 29.88 in 10.0 mi Calm Calm - N/A   Clear
5:53 AM 17.1 °F - 12.9 °F 84% 29.90 in 10.0 mi Calm Calm - N/A   Clear
6:07 AM 18.0 °F 12.7 °F 12.9 °F 81% 29.90 in 10.0 mi SSW 3.5 mph - N/A   Clear
6:53 AM 17.1 °F 11.7 °F 12.9 °F 84% 29.93 in 10.0 mi SSW 3.5 mph - N/A   Clear
7:53 AM 19.9 °F - 16.0 °F 85% 29.96 in 10.0 mi Calm Calm - N/A   Clear
8:53 AM 21.0 °F - 16.0 °F 81% 30.00 in 10.0 mi Calm Calm - N/A   Clear
9:53 AM 25.0 °F 19.3 °F 16.0 °F 69% 30.03 in 10.0 mi SE 4.6 mph - N/A   Overcast
10:53 AM 27.0 °F 23.0 °F 16.0 °F 63% 30.04 in 10.0 mi SE 3.5 mph - N/A   Overcast
12:53 PM 28.4 °F 22.2 °F 17.6 °F 64% 30.06 in 10.0 mi South 5.8 mph - N/A   Overcast
1:53 PM 28.4 °F 23.3 °F 19.4 °F 69% 30.08 in 10.0 mi South 4.6 mph - N/A   Overcast
2:53 PM 28.4 °F 22.2 °F 21.2 °F 74% 30.09 in 10.0 mi South 5.8 mph - N/A   Overcast
3:53 PM 30.2 °F 24.3 °F 21.2 °F 69% 30.10 in 10.0 mi South 5.8 mph - N/A   Overcast
4:53 PM 30.2 °F 25.4 °F 21.2 °F 69% 30.11 in 10.0 mi South 4.6 mph - N/A   Overcast
5:53 PM 28.4 °F 22.2 °F 23.0 °F 80% 30.12 in 7.0 mi South 5.8 mph - N/A Snow Light Snow
6:25 PM 28.4 °F 21.2 °F 24.8 °F 86% 30.13 in 3.0 mi South 6.9 mph - N/A Snow Light Snow
6:53 PM 28.4 °F 22.2 °F 24.8 °F 86% 30.14 in 6.0 mi SSE 5.8 mph - N/A   Overcast
7:53 PM 28.9 °F 22.8 °F 25.0 °F 85% 30.14 in 10.0 mi SSE 5.8 mph - N/A   Overcast
8:53 PM 30.2 °F 25.4 °F 26.6 °F 86% 30.15 in 8.0 mi South 4.6 mph - N/A Snow Light Snow
9:53 PM 30.0 °F 23.2 °F 27.0 °F 88% 30.16 in 10.0 mi SSE 6.9 mph - 0.00 in   Overcast
10:42 PM 30.0 °F 23.2 °F 27.0 °F 88% 30.16 in 2.0 mi South 6.9 mph - 0.00 in Snow Light Snow
10:48 PM 30.2 °F 25.4 °F 28.4 °F 93% 30.16 in 5.0 mi South 4.6 mph - 0.00 in Snow Light Snow
10:53 PM 30.0 °F 25.2 °F 28.0 °F 92% 30.17 in 5.0 mi South 4.6 mph - 0.00 in Snow Light Snow
11:26 PM 30.0 °F 24.1 °F 28.0 °F 92% 30.16 in 10.0 mi SSE 5.8 mph - 0.00 in   Overcast
11:53 PM 30.9 °F 26.2 °F 28.0 °F 89% 30.17 in 9.0 mi South 4.6 mph - 0.00 in   Overcast